Regional Weather Roundup
Issued by NWS

Home | Current Version | Previous Version | Text Only | Print | Product List | Glossary Off
Versions: 1 2 3 4 5 6 7 8 9 10 11 12 13 14 15 16 17 18 19 20 21 22 23 24 25 26 27 28 29 30 31 32 33 34 35 36 37 38 39 40 41 42 43 44 45 46 47 48 49 50

000
ASUS43 KMPX 090710
RWRMN
WEATHER ROUNDUP FOR MINNESOTA
NATIONAL WEATHER SERVICE TWIN CITIES/CHANHASSEN MN
100 AM CST TUE FEB 09 2016


NOTE: "FAIR" INDICATES FEW OR NO CLOUDS BELOW 12,000 FEET WITH NO
SIGNIFICANT WEATHER AND/OR OBSTRUCTIONS TO VISIBILITY. N/A MEANS
CURRENT SKY AND/OR WEATHER CONDITIONS ARE NOT AVAILABLE.

MNZ060>063-068>070-090800-
   Twin Cities Metro

CITY           SKY/WX    TMP DP  RH WIND       PRES   REMARKS
TWIN CITIES    FLURRIES  12   4  70 NW10G20   30.00R WCI  -1
ST PAUL        CLOUDY    12   2  64 N16       30.01R WCI  -5
CRYSTAL        CLOUDY    12   3  67 NW13G22   30.00R WCI  -3
BLAINE         CLOUDY    12   5  73 NW18      29.99S WCI  -5
LAKEVILLE      CLOUDY    10   5  79 NW15G22   29.98R WCI  -6
EDEN PRAIRIE   CLOUDY    12   2  64 N17G26    29.99R WCI  -5
SOUTH ST PAUL  CLOUDY    13   3  64 N16G23    29.99S WCI  -4
LAKE ELMO      CLOUDY    12   3  67 N13       29.99S WCI  -3
$$
MNZ001>005-007-008-013>017-022>024-027-028-090800-
   Northwest Minnesota

CITY           SKY/WX    TMP DP  RH WIND       PRES   REMARKS
BEMIDJI        FLURRIES   3  -2  79 NW12      30.09S WCI -14
HALLOCK        CLOUDY     1  -4  78 NW7       30.25R WCI -11
ROSEAU         CLOUDY     1  -6  71 N12       30.18S WCI -15
WARROAD        CLOUDY     0  -4  85 NW8       30.16F WCI -15
CROOKSTON      CLEAR      3   0  85 N12       30.24S WCI -13
FOSSTON        CLEAR      0  -6  78 N13       30.16S WCI -18
DETROIT LAKES  MOCLDY     5   1  85 N15G26    30.13S WCI -13
MOORHEAD       CLEAR      7   0  72 N18       30.22S WCI -12
PARK RAPIDS    CLOUDY     6  -3  66 N18G25    30.07S WCI -13
MAHNOMEN       FAIR       2  -3  78 N13       30.15S WCI -15
$$
MNZ006-009>011-018-025>026-090800-
   North Central Minnesota

CITY           SKY/WX    TMP DP  RH WIND       PRES   REMARKS
BAUDETTE       CLOUDY     0  -5  79 NW12      30.11S WCI -17
FLAG ISLAND    CLOUDY     0  -4  85 NW12      30.14S WCI -18
INTL FALLS     CLOUDY     1  -4  79 N14G24    30.06F WCI -17
WASKISH        MOCLDY     3   0  85 NW9       30.11S WCI -11
LONGVILLE      CLOUDY     3  -2  78 NW6       30.05S WCI  -8
GRAND RAPIDS   PTCLDY     1  -6  71 NW13      30.00F WCI -16
CRANE LAKE     CLOUDY     1  -2  85 NW9       30.04S WCI -14
ORR            CLOUDY     1  -6  71 NW7       29.98F WCI -11
COOK           CLOUDY     1  -2  85 NW6       30.00S WCI -10
WALKER         PTSUNNY    2  -4  75 NW9       30.07F WCI -12
$$
MNZ012-019>021-037-090800-
   Northeast Minnesota

CITY           SKY/WX    TMP DP  RH WIND       PRES   REMARKS
DULUTH         CLOUDY     2  -5  72 N16       29.93S WCI -18
ELY            CLOUDY     1  -4  78 N8G18     29.94S WCI -12
HIBBING        CLOUDY     0  -5  79 NW16      29.98F WCI -20
EVELETH        CLOUDY     3  -2  78 N9G16     29.98S WCI -11
DULUTH HARBOR  CLOUDY     9   0  66 NW14G20   30.01F WCI  -8
TWO HARBORS    CLOUDY     7  -2  66 NW10G26   29.90S WCI  -8
SILVER BAY     CLOUDY     7   0  72 NW12G24   29.89S WCI  -9
GRAND MARAIS     N/A      9  -1  64 CALM      29.91R
G MARAIS ARPRT CLOUDY     1  -6  71 NW23G30   29.77S HAZE    WCI -21
$$
MNZ029>031-032-039>041-046>048-054>057-064-090800-
   West Central Minnesota

CITY           SKY/WX    TMP DP  RH WIND       PRES   REMARKS
FERGUS FALLS   CLOUDY     5   0  78 N17G25    30.19S WCI -14
WHEATON        CLOUDY     9   3  78 NW18G25   30.20F WCI -10
MORRIS         PTCLDY     7   1  78 N24       30.12S WCI -15
ALEXANDRIA     MOCLDY     6  -1  73 N12       30.07S WCI  -9
ELBOW LAKE     MOCLDY     5   1  81 NW18G24   30.13S WCI -14
WADENA         CLOUDY     5  -2  72 N13G20    30.07S WCI -12
GLENWOOD       CLEAR      7   0  72 N18G25    30.06F WCI -12
APPLETON       CLEAR      9   1  72 NW21G29   30.15S WCI -11
BENSON         PTCLDY     7   1  78 N10G22    30.11S WCI  -8
ORTONVILLE     CLOUDY     7   1  78 N25       30.15S WCI -15
MADISON        PTCLDY     9   1  72 N21G29    30.15F WCI -11
WILLMAR        CLOUDY     9   3  78 NW18      30.08S WCI -10
$$
MNZ033>034-036-042>043-049>051-058-059-090800-
   Central Minnesota

CITY           SKY/WX    TMP DP  RH WIND       PRES   REMARKS
ST CLOUD       CLOUDY     9   1  70 N16G25    30.02S WCI  -8
SAUK CENTRE    FAIR       7  -1  71 N21G29    30.06S WCI -13
PAYNESVILLE    CLOUDY    10   3  75 N16G22    30.05S WCI  -8
AITKIN         PTCLDY     7  -2  66 NW9       30.01F WCI  -7
PINE RIVER     MOCLDY     3  -2  78 NW9G22    30.09R WCI -11
BRAINERD       PTCLDY     5  -2  72 N15G25    30.04S WCI -13
STAPLES        MOCLDY     3  -2  78 N16       30.06F WCI -16
LONG PRAIRIE   MOCLDY     7   1  78 NW10G16   30.05S WCI  -8
LITTLE FALLS   PTCLDY     9   0  66 NW9G16    30.05F WCI  -5
LITCHFIELD     CLOUDY    10   5  79 N15       30.04S WCI  -6
BUFFALO        CLEAR     10   2  68 NW15      30.04S WCI  -6
MAPLE LAKE     PTCLDY    11   4  74 NW15      30.04S WCI  -5
$$
MNZ037-044-045-052-053-090800-
   East Central Minnesota

CITY           SKY/WX    TMP DP  RH WIND       PRES   REMARKS
PRINCETON      PTCLDY    10   1  67 NW10      30.02S WCI  -3
MORA           PTCLDY     7   0  72 N14G22    30.02F WCI -10
CAMBRIDGE      CLOUDY    10   0  61 NW15G26   29.99F WCI  -6
RUSH CITY      CLOUDY     9   1  70 N9G20     30.01S WCI  -5
MOOSE LAKE     CLOUDY     5  -2  72 N8G18     29.99S WCI  -8
HINCKLEY       CLOUDY     9   1  72 NW16G22   29.99S WCI  -9
CLOQUET        CLOUDY     3  -4  72 NW14G23   29.96S WCI -15
MCGREGOR       CLOUDY     5   0  78 NW12      30.01F WCI -11
$$
MNZ071>073-080-081-089-090-097-098-090800-
   Southwest Minnesota

CITY           SKY/WX    TMP DP  RH WIND       PRES   REMARKS
MONTEVIDEO     CLOUDY     7   3  85 N21G30    30.13F WCI -13
GRANITE FALLS  PTCLDY    10   4  77 NW14G23   30.13F WCI  -6
CANBY          MOCLDY    11   6  79 N20G29    30.15F WCI  -7
MARSHALL       LGT SNOW   8   3  80 N29       30.10S WCI -15
REDWOOD FALLS  CLOUDY     9   2  73 NW21G30   30.08S WCI -11
OLIVIA         CLEAR     10   3  72 NW17G24   30.06F WCI  -7
PIPESTONE      CLEAR     10   1  67 N18G26    30.07F WCI  -8
WINDOM           N/A      7   3  85 NW35      30.03S FOG     WCI -18
WORTHINGTON    CLOUDY     9   1  72 N26       30.05S WCI -13
JACKSON        CLOUDY    10   3  72 N24G36    30.02S WCI -10
TRACY          CLEAR     10   5  80 N23G33    30.08F HAZE    WCI -10
SLAYTON        CLOUDY     7   5  90 NW21G29   30.05F FOG     WCI -13
$$
MNZ065>067-074>077-082>085-091>093-090800-
   South Central Minnesota

CITY           SKY/WX    TMP DP  RH WIND       PRES   REMARKS
MANKATO        CLOUDY    12   5  73 NW21      30.00S WCI  -6
NEW ULM        CLOUDY    10   1  67 N20G28    30.03R WCI  -8
ST JAMES       CLOUDY    10   5  79 NW23      30.05S WCI -10
FAIRMONT       CLOUDY    10   1  67 NW23G30   30.00R WCI -10
GLENCOE        CLOUDY    13   7  76 NW14G20   30.02S WCI  -2
FARIBAULT      CLOUDY    10   3  72 NW15      29.98R WCI  -6
OWATONNA       CLOUDY    10   3  72 NW22G29   29.96R WCI  -9
WASECA         CLOUDY    12   5  73 NW21G28   29.99R WCI  -6
ALBERT LEA     FLURRIES  10   7  85 NW13G24   29.94S WCI  -5
$$
MNZ078>079-086>088-094>096-090800-
   Southeast Minnesota

CITY           SKY/WX    TMP DP  RH WIND       PRES   REMARKS
ROCHESTER      MIX PCPN  11   5  77 N23G30    29.90S WCI  -9
RED WING       CLOUDY    12   1  62 N9G22     29.97S WCI   0
STANTON        CLOUDY    13   5  70 NW14      29.97R WCI  -2
DODGE CENTER   FLURRIES  10   5  79 N17       29.91R WCI  -7
WINONA         CLOUDY    14   7  73 N6        29.95R WCI   5
AUSTIN         CLOUDY    10   7  85 NW21G32   29.92R WCI  -9
PRESTON        CLOUDY    10   4  77 N18G24    29.89S WCI  -8
$$
ABBREVIATIONS USED IN REMARKS
   TC - TEMPERATURES IN CELSIUS
  WCI - WIND CHILL INDEX
   HX - HEAT INDEX
  VSB - VISIBILITY
$$



USA.gov is the U.S. government's official web portal to all federal, state and local government web resources and services.